Regional Weather Roundup
Issued by NWS Jackson, KY

Home | Current Version | Previous Version | Graphics & Text | Print | Product List | Glossary On
Versions: 1 2 3 4 5 6 7 8 9 10 11 12 13 14 15 16 17 18 19 20 21 22 23 24 25 26 27 28 29 30 31 32 33 34 35 36 37 38 39 40 41 42 43 44 45 46 47 48 49 50
000
ASUS43 KJKL 241219
RWRJKL

EAST KENTUCKY HOURLY WEATHER ROUNDUP
NATIONAL WEATHER SERVICE JACKSON KY
800 AM EDT THU APR 24 2014

NOTE: "FAIR" INDICATES FEW OR NO CLOUDS BELOW 12,000 FEET WITH
NO SIGNIFICANT WEATHER AND/OR OBSTRUCTIONS TO VISIBILITY.

* THESE REPORTS ARE NOT UNDER NWS QUALITY CONTROL AND MAY NOT
  REPORT WEATHER SUCH AS PRECIPITATION AND FOG.

KYZ079-080-083-085-087-088-110-112-115-119-120-241300
...EASTERN KENTUCKY...

CITY           SKY/WX    TMP DP  RH WIND       PRES   REMARKS
JACKSON        PTSUNNY   46  32  58 VRB3      30.08R
6HR MIN TEMP:  44; 6HR MAX TEMP:  49;

LONDON         CLOUDY    49  34  56 NE3       30.05R
6HR MIN TEMP:  44; 6HR MAX TEMP:  50;

SOMERSET*      PTSUNNY   46  32  57 E5        30.06R
WILLIAMSBURG*  PTSUNNY   45  37  76 CALM      30.05R
MIDDLESBORO*   MOSUNNY   38  35  89 CALM      30.07S
6HR MIN TEMP:  36; 6HR MAX TEMP:  42;

HARLAN APT*    CLOUDY    39  34  81 E6        30.07R WCI  35
BLACK MTN*       N/A     50  18  27 SW2         N/A
PIKEVILLE APT* PTSUNNY   46  32  57 E6        30.08R
BIG SANDY*     PTSUNNY   43  34  69 NE5       30.09R
6HR MIN TEMP:  38; 6HR MAX TEMP:  45;

ASHLAND*       CLOUDY    46  28  49 E5        30.14R
MOREHEAD APT*  CLOUDY   N/A N/A N/A MISG      30.12R
$$

KYZ035-036-041-042-044-050-067-078-099-241300
...CENTRAL KENTUCKY...

CITY           SKY/WX    TMP DP  RH WIND       PRES   REMARKS
MT STERLING*   CLOUDY    45  34  65 E8        30.10R
FLEMING/MASON* CLOUDY    45  32  61 E10       30.13R
DANVILLE*      PTSUNNY   43  36  75 NE5       30.05S
RICHMOND*      PTSUNNY   46  34  61 E7        30.06R
LEXINGTON      PTSUNNY   49  34  56 E13       30.06R
6HR MIN TEMP:  47; 6HR MAX TEMP:  52;

FRANKFORT      PTSUNNY   47  35  63 E9        30.05R
6HR MIN TEMP:  45; 6HR MAX TEMP:  50;

$$

KYZ091>093-OHZ055-061-077-WVZ005-015-034-035-042-241300
...SOUTHERN OHIO/WEST VIRGINIA...

CITY           SKY/WX    TMP DP  RH WIND       PRES   REMARKS
COVINGTON      CLOUDY    48  33  56 E14       30.10R
COLUMBUS       CLOUDY    46  20  35 E5        30.16R
DAYTON         CLOUDY    46  29  51 E10       30.14R
WILMINGTON     PTSUNNY   42  32  67 E8        30.12S
HUNTINGTON     CLOUDY    44  33  65 NE5       30.12R
CHARLESTON     PTSUNNY   43  37  79 CALM      30.13R
PINEVILLE*     SUNNY     39  37  90 MISG      30.14R
BECKLEY        CLOUDY    42  30  62 SE3       30.09R
BLUEFIELD      MOSUNNY   42  29  59 E5        30.08R
$$

VAZ002-007-008-TNZ017-027-036-066-071-241300
...SOUTHWEST VIRGINIA/EAST TENNESSEE...

CITY           SKY/WX    TMP DP  RH WIND       PRES   REMARKS
WISE*          MOSUNNY   46  30  53 CALM      30.08R
ABINGDON*      SUNNY     44  32  63 E6        30.06S
BRISTOL        MOSUNNY   42  32  67 CALM      30.07R
KNOXVILLE      MOSUNNY   48  36  63 NE3       30.05R
OAK RIDGE      SUNNY     46  38  73 E3        30.06R
CROSSVILLE     SUNNY     49  35  58 E3        30.04R
NASHVILLE      PTSUNNY   45  40  82 CALM      29.99R
$$

...KEY TO REMARKS...
VSB - VISIBILITY IN MILES
WCI - WIND CHILL INDEX
HX  - HEAT INDEX

$$



USA.gov is the U.S. government's official web portal to all federal, state and local government web resources and services.